STARLINK-11432, 62882

Orbit data source: Space-Track

STARLINK-11432, 62882 is a payload satellite owned by SpaceX/Seattle (US) in LEO that was launched on Tue, 04 Feb 2025 UTC via an FALCON 9 launch vehicle from the Air Force Eastern Test Range (AFETR). Payload-class satellites include a variety of spacecraft equipped with specific instruments for various scientific and technological missions. These include communications satellites like Starlink; space stations such as the ISS; scientific satellites like the Hubble; Earth observation satellites from companies like Planet Labs, Umbra, and HawkEye 360; GPS; miniature CubeSats for education and research; and military/defense satellites.

Loading next visibility...
Identifier
62882, 2025-024D
Orbit
LEO
Country
Flag of USUS
Related business
Manufacturer
SpaceX/Seattle
Mission
Operational Commercial Communications
Bus & Motor
STARLINK V2MD, Unknown motor
Mass
960 kg wet, ~910 kg dry
Launch date (UTC)
2025-02-04 (9 months ago)
Launch vehicle
FALCON 9
Launch site
Air Force Eastern Test Range (AFETR)
Object type
Payload
Rocket body
Debris
Shape & HBR
Box + 2 Pan, 18.1 m
Radar Cross Section
36.964 m², Large (>1 m²)

Expand to show TLE details & history
Last TLE update: 18 hours ago

TLE from 18 hours ago
0 STARLINK-11432
1 62882U 25024D   25302.89592366  .00262973  00000-0  19844-2 0  9996
2 62882  42.9991 250.0623 0001070 240.7498 119.3263 15.70892046 42892
Epoch: 2025-10-29T21:30Z
TLE epoch observation values (Epoch: 2025-10-29T21:30:07.804Z)
Latitude
0.00001°
Longitude
-110.9327°
Altitude
356.47 km
Speed
7.697 km/s
True Right ascension
16h 40m 14s
True Declination
0° 00' 00"
Sunlit
Object was in daylight at epoch
Visualization orbit readout
Latitude
Unknown
Longitude
Unknown
Altitude
Unknown
Speed
Unknown
Apparent Right ascension
Unknown
Apparent Declination
Unknown
Sunlit
N/A
Visualization observer readout
Local Sidereal Time
11:32:55
Azimuth
Unknown
Elevation
Unknown
Doppler factor
Unknown
Orbital elements
Apogee altitude
359.049 km
Perigee altitude
357.607 km
Semi-major axis
6,736.465 km
Eccentricity
0.00011
Inclination
42.9991°
RAAN
250.0623°
Arg. of periapsis
240.7498°
True anomaly
119.33699°
Mean anomaly
119.3263°
Eccentric anomaly
119.33164°
Mean motion
3.9255 °/min
Orbital period
91.71 mins
BSTAR
0.0019844
Loading maneuver chart data...
Computing Atmospheric mass density...
Loading historical data...
Loading historical data...
Loading historical data...
Loading historical data...
Loading historical data...
Loading historical data...
Loading historical data...

Documentation

Showing up to 5 results
|